Regional Weather Roundup
Issued by NWS State College, PA

Home | Current Version | Previous Version | Graphics & Text | Print | Product List | Glossary On
Versions: 1 2 3 4 5 6 7 8 9 10 11 12 13 14 15 16 17 18 19 20 21 22 23 24 25 26 27 28 29 30 31 32 33 34 35 36 37 38 39 40 41 42 43 44 45 46 47 48 49 50
000
ASUS41 KCTP 240203
RWRCTP

REGIONAL WEATHER ROUNDUP
NATIONAL WEATHER SERVICE STATE COLLEGE PA
900 PM EST THU FEB 23 2017

Note: "fair" indicates few or no clouds below 12,000 feet with no
significant weather and/or obstructions to visibility.

* = STATION THAT DOES NOT REPORT PRECIPITATION /E.G. RAIN...SNOW...ETC/
    THUNDER OR FOG.

PAZ002>004-007>009-013>016-020>023-029>032-240300-
WESTERN PENNSYLVANIA

CITY           SKY/WX    TMP DP  RH WIND       PRES   REMARKS
ERIE           CLOUDY    49  45  86 NE3       29.84R
MEADVILLE      PTCLDY    54  49  83 E3        29.83S
FRANKLIN*      CLEAR     55  48  76 CALM      29.85R
NEW CASTLE     RAIN      58  54  86 SE5       29.83R
BEAVER COUNTY  NOT AVBL
BUTLER*        MOCLDY    55  54  94 E6        29.84S
PITTSBURGH INT CLOUDY    61  53  75 S5        29.82S
PITTSBURGH     CLOUDY    62  50  64 S6        29.83R
INDIANA*       CLEAR     55  52  88 CALM      29.88R
LATROBE        MOCLDY    63  54  72 SW6       29.85S
WASHINGTON CO* MOCLDY    57  52  82 CALM      29.85S
$$

PAZ004>006-010>012-017>019-024>028-033>037-041-042-045-046-049>053-240300-
CENTRAL PENNSYLVANIA

CITY           SKY/WX    TMP DP  RH WIND       PRES   REMARKS
BRADFORD       MOCLDY    53  52  96 CALM      29.86R
DUBOIS         MOCLDY    58  51  78 S3        29.84S
CLEARFIELD       N/A    N/A N/A N/A MISG      29.85S
JOHNSTOWN      PTCLDY    57  51  80 SW6       29.86S
ALTOONA        CLOUDY    56  50  80 SE3       29.86R
STATE COLLEGE  CLEAR     61  52  72 CALM      29.85S
WILLIAMSPORT   MOCLDY    52  50  93 CALM      29.84S
SELINSGROVE    CLOUDY    61  54  77 S6        29.84R
FT INDIANTOWN  MOCLDY    57  57 100 CALM      29.86R
CAPITAL CITY   CLOUDY    70  51  51 VRB5      29.85R
HARRISBURG     CLOUDY    64  52  64 S7        29.84R
YORK           PTCLDY    63  53  70 SW6       29.85R
$$

PAZ038>040-043-044-047-048-054-055-060>062-067>071-240300-
EASTERN PENNSYLVANIA

CITY           SKY/WX    TMP DP  RH WIND       PRES   REMARKS
SCRANTON       CLOUDY    63  53  70 VRB5      29.86R THUNDER
MOUNT POCONO   PTCLDY    56  51  84 VRB3      29.88R
ALLENTOWN      CLOUDY    66  52  60 SW8       29.86R
QUAKERTOWN*    PTCLDY    55  50  82 CALM      29.88R
READING        MOCLDY    65  55  70 S8        29.85R
LANCASTER      PTCLDY    64  54  69 S7        29.86R
COATESVILLE    PTCLDY    61  54  77 VRB5      29.89R
POTTSTOWN      CLOUDY    64  52  64 S6        29.89R
BLUE BELL      MOCLDY    63  52  67 SW9       29.87R
DOYLESTOWN     MOCLDY    64  53  67 VRB5      29.87R
WILLOW GROVE   NOT AVBL
NORTH PHILA    CLOUDY    66  53  63 SW8       29.90R
PHILADELPHIA   PTCLDY    63  51  65 SW9       29.89R
$$




USA.gov is the U.S. government's official web portal to all federal, state and local government web resources and services.